Regional Weather Roundup
Issued by NWS

Home | Current Version | Previous Version | Graphics & Text | Print | Product List | Glossary On
Versions: 1 2 3 4 5 6 7 8 9 10 11 12 13 14 15 16 17 18 19 20 21 22 23 24 25 26 27 28 29 30 31 32 33 34 35 36 37 38 39 40 41 42 43 44 45 46 47 48 49 50
000
ASUS43 KFSD 300602
RWRSD

WEATHER ROUNDUP FOR SOUTH DAKOTA
NATIONAL WEATHER SERVICE SIOUX FALLS SD
100 AM CDT MON MAR 30 2015

NOTE: "FAIR" INDICATES FEW OR NO CLOUDS BELOW 12,000 FEET WITH NO
SIGNIFICANT WEATHER AND/OR OBSTRUCTIONS TO VISIBILITY.


SDZ001>005-009-010-012>017-300700-
NORTHWEST AND NORTH CENTRAL SOUTH DAKOTA

CITY           SKY/WX    TMP DP  RH WIND       PRES   REMARKS
BUFFALO          N/A     40  27  59 SW7       29.92F
FAITH            N/A     42  26  53 S12       30.00F
MOBRIDGE       CLOUDY    43  32  65 SE7       29.95F
$$

SDZ012>016-024>037-041>051-057-063-072>074-300700-
SOUTHWEST AND SOUTH CENTRAL SOUTH DAKOTA

CITY           SKY/WX    TMP DP  RH WIND       PRES   REMARKS
RAPID CTY ARPT PTCLDY    46  28  49 S7        30.03F
PIERRE         CLOUDY    49  28  44 SW5       30.00S
CUSTER         PTCLDY    35  20  54 NW3       30.09F
ELLSWORTH AFB  PTCLDY    48  26  42 S6        30.02F
PHILIP         PTCLDY    38  24  57 W8        30.03F
PINE RIDGE     PTCLDY    39  26  59 NE6       30.04F
WINNER         FAIR      49  21  33 SW12      30.04S
$$

SDZ004>011-016>023-039-040-300700-
NORTHEAST SOUTH DAKOTA

CITY           SKY/WX    TMP DP  RH WIND       PRES   REMARKS
ABERDEEN       MOCLDY    30  22  72 SW7       29.98F WCI  23
WATERTOWN      CLEAR     32  26  78 SW6       30.00R WCI  26
SISSETON         N/A     44  27  51 W13       29.95R
$$

SDZ017-020-022-023-036>040-048>070-300700-
SOUTHEAST SOUTH DAKOTA

CITY           SKY/WX    TMP DP  RH WIND       PRES   REMARKS
SIOUX FALLS    PTCLDY    37  21  52 SW5       30.04S
HURON          CLOUDY    40  24  53 SW7       30.02R
MITCHELL       MOCLDY    44  24  45 SW7       30.04S
YANKTON        CLEAR     43  21  42 SW7       30.07S
$$

ABBREVIATIONS USED IN REMARKS
   TC - TEMPERATURE IN CELSIUS
  WCI - WIND CHILL INDEX
   HX - HEAT INDEX
  VSB - VISIBILITY




USA.gov is the U.S. government's official web portal to all federal, state and local government web resources and services.